timestamp,wind_dir_avg,wind_spd_avg,wind_spd_max_dir,wind_spd_gust,battery_voltage,lat,long
2021-04-11 00:04:01+00:00,11.0,6.99,18.0,8.34,12.57,47.59359,-54.27349
2021-04-11 00:14:01+00:00,13.0,7.46,14.0,8.25,12.49,47.59359,-54.27349
2021-04-11 00:24:01+00:00,2.0,5.66,355.0,6.87,12.49,47.59359,-54.27349
2021-04-11 00:34:01+00:00,11.0,5.78,14.0,6.81,12.49,47.59359,-54.27349
2021-04-11 00:44:01+00:00,5.0,5.93,10.0,6.71,12.49,47.59359,-54.27349
2021-04-11 00:54:01+00:00,10.0,5.65,14.0,6.48,12.49,47.59359,-54.27349
2021-04-11 01:04:01+00:00,6.0,7.29,1.0,10.13,12.49,47.59359,-54.27349
2021-04-11 01:14:01+00:00,1.0,7.82,358.0,10.85,12.49,47.59359,-54.27349
2021-04-11 01:24:01+00:00,1.0,5.9,1.0,7.13,12.49,47.59359,-54.27349
2021-04-11 01:34:01+00:00,1.0,4.98,28.0,5.77,12.49,47.59359,-54.27349
2021-04-11 01:44:01+00:00,2.0,4.73,357.0,5.67,12.49,47.59359,-54.27349
2021-04-11 01:54:01+00:00,356.0,4.47,359.0,4.79,12.49,47.59359,-54.27349
2021-04-11 02:04:01+00:00,357.0,4.94,359.0,5.56,12.49,47.59359,-54.27349
2021-04-11 02:14:01+00:00,349.0,5.3,354.0,5.83,12.49,47.59359,-54.27349
2021-04-11 02:24:01+00:00,348.0,5.15,348.0,5.65,12.49,47.59359,-54.27349
2021-04-11 02:34:01+00:00,348.0,4.57,348.0,5.22,12.49,47.59359,-54.27349
2021-04-11 02:44:01+00:00,344.0,4.41,343.0,4.81,12.49,47.59359,-54.27349
2021-04-11 02:54:01+00:00,343.0,4.79,344.0,5.41,12.49,47.59359,-54.27349
2021-04-11 03:04:01+00:00,352.0,3.02,347.0,3.71,12.49,47.59359,-54.27349
2021-04-11 03:14:01+00:00,344.0,2.29,346.0,2.63,12.41,47.59359,-54.27349
2021-04-11 03:24:01+00:00,328.0,3.51,329.0,4.0,12.41,47.59359,-54.27349
2021-04-11 03:34:01+00:00,334.0,2.7,335.0,3.35,12.41,47.59359,-54.27349
2021-04-11 03:44:01+00:00,330.0,4.03,337.0,4.48,12.41,47.59359,-54.27349
2021-04-11 03:54:01+00:00,317.0,4.74,315.0,5.41,12.41,47.59359,-54.27349
2021-04-11 04:04:01+00:00,309.0,4.14,311.0,4.46,12.41,47.59359,-54.27349
2021-04-11 04:14:01+00:00,320.0,5.68,319.0,6.32,12.41,47.59359,-54.27349
2021-04-11 04:24:01+00:00,306.0,3.84,313.0,4.42,12.41,47.59359,-54.27349
2021-04-11 04:34:01+00:00,311.0,3.68,309.0,3.97,12.41,47.59359,-54.27349
2021-04-11 04:44:01+00:00,317.0,4.01,318.0,4.56,12.41,47.59359,-54.27349
2021-04-11 04:54:01+00:00,316.0,2.82,315.0,3.43,12.41,47.59359,-54.27349
2021-04-11 05:04:01+00:00,322.0,3.69,325.0,4.11,12.41,47.59359,-54.27349
2021-04-11 05:14:01+00:00,315.0,3.71,315.0,4.13,12.41,47.59359,-54.27349
2021-04-11 05:24:01+00:00,320.0,3.96,320.0,4.23,12.41,47.59359,-54.27349
2021-04-11 05:34:01+00:00,328.0,5.09,325.0,5.93,12.41,47.59359,-54.27349
2021-04-11 05:44:01+00:00,328.0,5.48,327.0,6.27,12.41,47.59359,-54.27349
2021-04-11 05:54:01+00:00,326.0,5.94,325.0,6.37,12.41,47.59359,-54.27349
2021-04-11 06:04:01+00:00,323.0,5.24,322.0,5.56,12.41,47.59359,-54.27349
2021-04-11 06:14:01+00:00,321.0,4.79,322.0,5.28,12.41,47.59359,-54.27349
2021-04-11 06:24:01+00:00,320.0,3.98,323.0,4.64,12.41,47.59359,-54.27349
2021-04-11 06:34:01+00:00,316.0,4.8,318.0,5.42,12.41,47.59359,-54.27349
2021-04-11 06:44:01+00:00,313.0,4.97,316.0,5.42,12.41,47.59359,-54.27349
2021-04-11 06:54:01+00:00,307.0,3.89,313.0,4.87,12.41,47.59359,-54.27349
2021-04-11 07:04:01+00:00,306.0,2.83,307.0,3.52,12.41,47.59359,-54.27349
2021-04-11 07:14:01+00:00,301.0,3.48,302.0,3.76,12.41,47.59359,-54.27349
2021-04-11 07:24:01+00:00,305.0,3.44,301.0,3.94,12.41,47.59359,-54.27349
2021-04-11 07:34:01+00:00,312.0,2.89,308.0,3.35,12.41,47.59359,-54.27349
2021-04-11 07:44:01+00:00,306.0,3.14,305.0,3.73,12.41,47.59359,-54.27349
2021-04-11 07:54:01+00:00,324.0,3.06,326.0,3.4,12.41,47.59359,-54.27349
2021-04-11 08:04:01+00:00,320.0,3.42,319.0,3.85,12.41,47.59359,-54.27349
2021-04-11 08:14:01+00:00,325.0,2.76,325.0,3.08,12.33,47.59359,-54.27349
2021-04-11 08:24:01+00:00,323.0,3.05,323.0,3.48,12.33,47.59359,-54.27349
2021-04-11 08:34:01+00:00,332.0,2.81,331.0,3.23,12.33,47.59359,-54.27349
2021-04-11 08:44:01+00:00,333.0,2.89,334.0,3.15,12.33,47.59359,-54.27349
2021-04-11 08:54:01+00:00,334.0,3.0,332.0,3.32,12.33,47.59359,-54.27349
2021-04-11 09:04:01+00:00,343.0,2.58,345.0,2.83,12.33,47.59359,-54.27349
2021-04-11 09:14:01+00:00,352.0,2.56,355.0,2.73,12.33,47.59359,-54.27349
2021-04-11 09:24:01+00:00,1.0,2.12,2.0,2.24,12.33,47.59359,-54.27349
2021-04-11 09:34:01+00:00,55.0,1.87,54.0,2.02,12.33,47.59359,-54.27349
2021-04-11 09:44:01+00:00,55.0,2.08,54.0,2.24,12.33,47.59359,-54.27349
2021-04-11 09:54:01+00:00,106.0,1.88,107.0,2.18,12.33,47.59359,-54.27349
2021-04-11 10:04:01+00:00,90.0,1.18,83.0,1.88,12.33,47.59359,-54.27349
2021-04-11 10:14:01+00:00,118.0,0.87,111.0,1.27,12.41,47.59359,-54.27349
2021-04-11 10:24:01+00:00,124.0,1.36,127.0,1.51,12.41,47.59359,-54.27349
2021-04-11 10:34:01+00:00,130.0,1.63,134.0,2.01,12.41,47.59359,-54.27349
2021-04-11 10:44:01+00:00,153.0,2.54,152.0,2.69,12.41,47.59359,-54.27349
2021-04-11 10:54:01+00:00,108.0,1.15,75.0,1.53,12.41,47.59359,-54.27349
2021-04-11 11:04:01+00:00,34.0,1.91,37.0,2.16,12.41,47.59359,-54.27349
2021-04-11 11:14:01+00:00,36.0,1.88,39.0,2.23,12.81,47.59359,-54.27349
2021-04-11 11:24:01+00:00,58.0,1.73,64.0,2.38,12.81,47.59359,-54.27349
2021-04-11 11:34:01+00:00,73.0,1.14,91.0,1.79,12.81,47.59359,-54.27349
2021-04-11 11:44:01+00:00,110.0,1.94,109.0,2.45,12.81,47.59359,-54.27349
2021-04-11 11:54:01+00:00,133.0,1.57,127.0,1.72,12.81,47.59359,-54.27349
2021-04-11 12:04:01+00:00,118.0,1.87,124.0,2.56,12.81,47.59359,-54.27349
2021-04-11 12:14:01+00:00,123.0,2.03,125.0,2.23,13.44,47.59359,-54.27349
2021-04-11 12:24:01+00:00,67.0,0.69,84.0,1.19,13.44,47.59359,-54.27349
2021-04-11 12:34:01+00:00,37.0,2.09,39.0,2.36,13.44,47.59359,-54.27349
2021-04-11 12:44:01+00:00,60.0,1.64,55.0,1.85,13.44,47.59359,-54.27349
2021-04-11 12:54:01+00:00,42.0,2.25,46.0,2.52,13.44,47.59359,-54.27349
2021-04-11 13:04:01+00:00,82.0,1.45,74.0,2.16,13.44,47.59359,-54.27349
2021-04-11 13:14:01+00:00,72.0,1.0,61.0,1.78,13.6,47.59359,-54.27349
2021-04-11 13:24:01+00:00,55.0,1.89,54.0,2.19,13.6,47.59359,-54.27349
2021-04-11 13:34:01+00:00,60.0,2.15,60.0,2.48,13.6,47.59359,-54.27349
2021-04-11 13:44:01+00:00,47.0,1.85,46.0,2.06,13.6,47.59359,-54.27349
2021-04-11 13:54:01+00:00,112.0,2.28,105.0,2.95,13.6,47.59359,-54.27349
2021-04-11 14:04:01+00:00,106.0,3.33,107.0,3.7,13.6,47.59359,-54.27349
2021-04-11 14:14:01+00:00,52.0,3.88,58.0,4.34,13.68,47.59359,-54.27349
2021-04-11 14:24:01+00:00,114.0,2.12,116.0,2.44,13.68,47.59359,-54.27349
2021-04-11 14:34:01+00:00,50.0,2.23,48.0,2.44,13.68,47.59359,-54.27349
2021-04-11 14:44:01+00:00,127.0,2.29,130.0,2.53,13.68,47.59359,-54.27349
2021-04-11 14:54:01+00:00,46.0,3.51,45.0,3.64,13.68,47.59359,-54.27349
2021-04-11 15:04:01+00:00,64.0,1.64,45.0,2.46,13.68,47.59359,-54.27349
2021-04-11 15:14:01+00:00,70.0,1.57,68.0,1.9,13.6,47.59359,-54.27349
2021-04-11 15:24:01+00:00,64.0,1.67,76.0,2.25,13.6,47.59359,-54.27349
2021-04-11 15:34:01+00:00,70.0,2.28,60.0,2.76,13.6,47.59359,-54.27349
2021-04-11 15:44:01+00:00,61.0,1.45,47.0,2.23,13.6,47.59359,-54.27349
2021-04-11 15:54:01+00:00,114.0,2.08,117.0,3.1,13.6,47.59359,-54.27349
2021-04-11 16:04:01+00:00,114.0,2.0,121.0,2.99,13.6,47.59359,-54.27349
2021-04-11 16:14:01+00:00,98.0,1.59,78.0,2.15,13.68,47.59359,-54.27349
2021-04-11 16:24:01+00:00,92.0,2.13,95.0,3.17,13.68,47.59359,-54.27349
2021-04-11 16:34:01+00:00,74.0,2.08,75.0,3.13,13.68,47.59359,-54.27349
2021-04-11 16:44:01+00:00,67.0,1.49,65.0,1.99,13.68,47.59359,-54.27349
2021-04-11 16:54:01+00:00,60.0,1.31,59.0,2.09,13.68,47.59359,-54.27349
2021-04-11 17:04:01+00:00,37.0,1.99,39.0,2.25,13.68,47.59359,-54.27349
2021-04-11 17:14:01+00:00,16.0,2.27,16.0,2.53,13.76,47.59359,-54.27349
2021-04-11 17:24:01+00:00,349.0,2.44,349.0,2.7,13.76,47.59359,-54.27349
2021-04-11 17:34:01+00:00,354.0,2.74,354.0,2.9,13.76,47.59359,-54.27349
2021-04-11 17:44:01+00:00,31.0,3.61,35.0,4.08,13.76,47.59359,-54.27349
2021-04-11 17:54:01+00:00,31.0,2.38,29.0,2.67,13.76,47.59359,-54.27349
2021-04-11 18:04:01+00:00,16.0,2.35,13.0,2.68,13.76,47.59359,-54.27349
2021-04-11 18:14:01+00:00,25.0,2.36,21.0,2.72,13.84,47.59359,-54.27349
2021-04-11 18:24:01+00:00,19.0,2.23,23.0,2.55,13.84,47.59359,-54.27349
2021-04-11 18:34:01+00:00,47.0,2.48,52.0,2.71,13.84,47.59359,-54.27349
2021-04-11 18:44:01+00:00,57.0,2.44,57.0,2.75,13.84,47.59359,-54.27349
2021-04-11 18:54:01+00:00,83.0,1.49,53.0,1.84,13.84,47.59359,-54.27349
2021-04-11 19:04:01+00:00,41.0,0.9,34.0,1.08,13.84,47.59359,-54.27349
2021-04-11 19:14:01+00:00,13.0,0.75,27.0,0.97,13.68,47.59359,-54.27349
2021-04-11 19:24:01+00:00,38.0,1.11,38.0,1.25,13.68,47.59359,-54.27349
2021-04-11 19:34:01+00:00,46.0,0.89,44.0,1.07,13.68,47.59359,-54.27349
2021-04-11 19:44:01+00:00,59.0,1.1,60.0,1.32,13.68,47.59359,-54.27349
2021-04-11 19:54:01+00:00,92.0,0.85,80.0,1.16,13.68,47.59359,-54.27349
2021-04-11 20:04:01+00:00,111.0,1.33,111.0,1.91,13.68,47.59359,-54.27349
2021-04-11 20:14:01+00:00,42.0,1.71,26.0,2.6,13.6,47.59359,-54.27349
2021-04-11 20:24:01+00:00,70.0,0.96,33.0,1.76,13.6,47.59359,-54.27349
2021-04-11 20:34:01+00:00,20.0,2.24,17.0,2.67,13.6,47.59359,-54.27349
2021-04-11 20:44:01+00:00,39.0,2.02,34.0,2.17,13.6,47.59359,-54.27349
2021-04-11 20:54:01+00:00,53.0,1.05,55.0,1.6,13.6,47.59359,-54.27349
2021-04-11 21:04:01+00:00,67.0,1.98,60.0,3.44,13.6,47.59359,-54.27349
2021-04-11 21:14:01+00:00,63.0,2.58,68.0,3.73,13.68,47.59359,-54.27349
2021-04-11 21:24:01+00:00,87.0,2.6,99.0,4.26,13.68,47.59359,-54.27349
2021-04-11 21:34:01+00:00,79.0,2.88,98.0,4.04,13.68,47.59359,-54.27349
2021-04-11 21:44:01+00:00,81.0,3.6,79.0,4.75,13.68,47.59359,-54.27349
2021-04-11 21:54:01+00:00,82.0,2.59,90.0,4.02,13.68,47.59359,-54.27349
2021-04-11 22:04:01+00:00,89.0,2.26,81.0,3.78,13.68,47.59359,-54.27349
2021-04-11 22:14:01+00:00,92.0,1.32,81.0,2.24,13.21,47.59359,-54.27349
2021-04-11 22:24:01+00:00,75.0,3.16,79.0,4.83,13.21,47.59359,-54.27349
2021-04-11 22:34:01+00:00,97.0,3.02,94.0,5.69,13.21,47.59359,-54.27349
2021-04-11 22:44:01+00:00,97.0,2.27,134.0,4.0,13.21,47.59359,-54.27349
2021-04-11 22:54:01+00:00,94.0,3.19,104.0,6.47,13.21,47.59359,-54.27349
2021-04-11 23:04:01+00:00,123.0,5.87,114.0,7.6,13.21,47.59359,-54.27349
2021-04-11 23:14:01+00:00,198.0,8.77,199.0,9.97,12.65,47.59359,-54.27349
2021-04-11 23:24:01+00:00,199.0,4.96,199.0,5.33,12.65,47.59359,-54.27349
2021-04-11 23:34:01+00:00,180.0,4.49,180.0,4.8,12.65,47.59359,-54.27349
2021-04-11 23:44:01+00:00,174.0,5.56,177.0,6.21,12.65,47.59359,-54.27349
2021-04-11 23:54:01+00:00,171.0,4.31,170.0,4.71,12.65,47.59359,-54.27349
